Location: Augustenthal
(51.7167°N, 10.2833°E)
Time: 06:56:01
(UTC+00:00)

Cosmos 1727 Rocket - Pass Details

Date: 18 May 2021
Orbit: 960 x 997 km, 82.9° (Epoch: 15 June)

Event Time Altitude Azimuth Distance (km) Brightness Sun altitude
Exits shadow 23:36:39 29° 170° (S) 1,749 4.8 -18.4°
Maximum altitude 23:40:04 69° 95° (E) 1,066 4.2 -18.3°
Drops below altitude 10° 23:46:24 10° 14° (NNE) 2,777 7.7 -18.2°
Sets 23:48:56 0° 12° (NNE) 3,729 8.8 -18.1°
